<?xml version="1.0" encoding="UTF-8"?>
<gpx
version="1.1"
creator="Kashmir3D 9.390 - http://www.kashmir3d.com"
xmlns:xsi="http://www.w3.org/2001/XMLSchema-instance"
xmlns="http://www.topografix.com/GPX/1/1"
xmlns:kashmir3d="http://www.kashmir3d.com/namespace/kashmir3d"
xsi:schemaLocation="http://www.topografix.com/GPX/1/1 http://www.topografix.com/GPX/1/1/gpx.xsd
	http://www.kashmir3d.com/namespace/kashmir3d http://www.kashmir3d.com/namespace/kashmir3d.xsd">
<trk>
 <name>OSHIOYAMA.KML(小塩山)</name>
 <number>1</number>
 <extensions>
 <kashmir3d:line_color>0000ff</kashmir3d:line_color>
 <kashmir3d:line_size>3</kashmir3d:line_size>
 <kashmir3d:line_style>1</kashmir3d:line_style>
 <kashmir3d:icon>901001</kashmir3d:icon>
 </extensions>
<trkseg>
<trkpt lat="34.957427" lon="135.661046">
 <ele>94.400000</ele>
 <time>2020-03-24T17:04:41Z</time>
</trkpt>
<trkpt lat="34.957478" lon="135.660874">
 <ele>94.800000</ele>
 <time>2020-03-24T17:04:41Z</time>
</trkpt>
<trkpt lat="34.957452" lon="135.660627">
 <ele>95.400000</ele>
 <time>2020-03-24T17:04:42Z</time>
</trkpt>
<trkpt lat="34.957444" lon="135.660445">
 <ele>96.700000</ele>
 <time>2020-03-24T17:04:42Z</time>
</trkpt>
<trkpt lat="34.957401" lon="135.660381">
 <ele>98.500000</ele>
 <time>2020-03-24T17:04:42Z</time>
</trkpt>
<trkpt lat="34.957358" lon="135.660359">
 <ele>97.800000</ele>
 <time>2020-03-24T17:04:42Z</time>
</trkpt>
<trkpt lat="34.957315" lon="135.660198">
 <ele>99.400000</ele>
 <time>2020-03-24T17:04:42Z</time>
</trkpt>
<trkpt lat="34.957212" lon="135.659866">
 <ele>101.000000</ele>
 <time>2020-03-24T17:04:42Z</time>
</trkpt>
<trkpt lat="34.957049" lon="135.659501">
 <ele>102.100000</ele>
 <time>2020-03-24T17:04:42Z</time>
</trkpt>
<trkpt lat="34.956912" lon="135.659265">
 <ele>102.100000</ele>
 <time>2020-03-24T17:04:42Z</time>
</trkpt>
<trkpt lat="34.956706" lon="135.658954">
 <ele>100.500000</ele>
 <time>2020-03-24T17:04:43Z</time>
</trkpt>
<trkpt lat="34.956620" lon="135.658825">
 <ele>100.100000</ele>
 <time>2020-03-24T17:04:43Z</time>
</trkpt>
<trkpt lat="34.956663" lon="135.658675">
 <ele>100.700000</ele>
 <time>2020-03-24T17:04:43Z</time>
</trkpt>
<trkpt lat="34.956809" lon="135.658482">
 <ele>101.700000</ele>
 <time>2020-03-24T17:04:43Z</time>
</trkpt>
<trkpt lat="34.956963" lon="135.658267">
 <ele>102.300000</ele>
 <time>2020-03-24T17:04:43Z</time>
</trkpt>
<trkpt lat="34.957143" lon="135.658074">
 <ele>103.800000</ele>
 <time>2020-03-24T17:04:43Z</time>
</trkpt>
<trkpt lat="34.957238" lon="135.657934">
 <ele>104.800000</ele>
 <time>2020-03-24T17:04:43Z</time>
</trkpt>
<trkpt lat="34.957435" lon="135.657537">
 <ele>107.400000</ele>
 <time>2020-03-24T17:04:44Z</time>
</trkpt>
<trkpt lat="34.957624" lon="135.657140">
 <ele>109.500000</ele>
 <time>2020-03-24T17:04:44Z</time>
</trkpt>
<trkpt lat="34.957753" lon="135.656872">
 <ele>110.900000</ele>
 <time>2020-03-24T17:04:44Z</time>
</trkpt>
<trkpt lat="34.957890" lon="135.656604">
 <ele>113.000000</ele>
 <time>2020-03-24T17:04:44Z</time>
</trkpt>
<trkpt lat="34.958036" lon="135.656325">
 <ele>114.000000</ele>
 <time>2020-03-24T17:04:44Z</time>
</trkpt>
<trkpt lat="34.958105" lon="135.656153">
 <ele>114.700000</ele>
 <time>2020-03-24T17:04:44Z</time>
</trkpt>
<trkpt lat="34.958173" lon="135.655992">
 <ele>115.000000</ele>
 <time>2020-03-24T17:04:44Z</time>
</trkpt>
<trkpt lat="34.958268" lon="135.655821">
 <ele>116.100000</ele>
 <time>2020-03-24T17:04:44Z</time>
</trkpt>
<trkpt lat="34.958302" lon="135.655681">
 <ele>116.500000</ele>
 <time>2020-03-24T17:04:45Z</time>
</trkpt>
<trkpt lat="34.958328" lon="135.655477">
 <ele>117.900000</ele>
 <time>2020-03-24T17:04:45Z</time>
</trkpt>
<trkpt lat="34.958328" lon="135.655241">
 <ele>118.500000</ele>
 <time>2020-03-24T17:04:45Z</time>
</trkpt>
<trkpt lat="34.958345" lon="135.655113">
 <ele>118.800000</ele>
 <time>2020-03-24T17:04:45Z</time>
</trkpt>
<trkpt lat="34.958371" lon="135.654995">
 <ele>119.400000</ele>
 <time>2020-03-24T17:04:45Z</time>
</trkpt>
<trkpt lat="34.958465" lon="135.654844">
 <ele>120.700000</ele>
 <time>2020-03-24T17:04:45Z</time>
</trkpt>
<trkpt lat="34.958551" lon="135.654737">
 <ele>121.500000</ele>
 <time>2020-03-24T17:04:45Z</time>
</trkpt>
<trkpt lat="34.958731" lon="135.654587">
 <ele>125.400000</ele>
 <time>2020-03-24T17:04:46Z</time>
</trkpt>
<trkpt lat="34.958903" lon="135.654458">
 <ele>128.600000</ele>
 <time>2020-03-24T17:04:46Z</time>
</trkpt>
<trkpt lat="34.959015" lon="135.654394">
 <ele>130.500000</ele>
 <time>2020-03-24T17:04:46Z</time>
</trkpt>
<trkpt lat="34.959195" lon="135.654276">
 <ele>134.600000</ele>
 <time>2020-03-24T17:04:46Z</time>
</trkpt>
<trkpt lat="34.959375" lon="135.654169">
 <ele>137.300000</ele>
 <time>2020-03-24T17:04:46Z</time>
</trkpt>
<trkpt lat="34.959461" lon="135.654083">
 <ele>139.300000</ele>
 <time>2020-03-24T17:04:46Z</time>
</trkpt>
<trkpt lat="34.959607" lon="135.653900">
 <ele>143.600000</ele>
 <time>2020-03-24T17:04:46Z</time>
</trkpt>
<trkpt lat="34.959710" lon="135.653707">
 <ele>146.700000</ele>
 <time>2020-03-24T17:04:46Z</time>
</trkpt>
<trkpt lat="34.959778" lon="135.653482">
 <ele>150.200000</ele>
 <time>2020-03-24T17:04:47Z</time>
</trkpt>
<trkpt lat="34.959839" lon="135.653300">
 <ele>153.900000</ele>
 <time>2020-03-24T17:04:47Z</time>
</trkpt>
<trkpt lat="34.959881" lon="135.653106">
 <ele>156.800000</ele>
 <time>2020-03-24T17:04:47Z</time>
</trkpt>
<trkpt lat="34.959907" lon="135.652752">
 <ele>161.700000</ele>
 <time>2020-03-24T17:04:47Z</time>
</trkpt>
<trkpt lat="34.959942" lon="135.652570">
 <ele>163.700000</ele>
 <time>2020-03-24T17:04:47Z</time>
</trkpt>
<trkpt lat="34.959942" lon="135.652431">
 <ele>165.300000</ele>
 <time>2020-03-24T17:04:47Z</time>
</trkpt>
<trkpt lat="34.959967" lon="135.652323">
 <ele>165.800000</ele>
 <time>2020-03-24T17:04:47Z</time>
</trkpt>
<trkpt lat="34.960027" lon="135.652184">
 <ele>165.500000</ele>
 <time>2020-03-24T17:04:47Z</time>
</trkpt>
<trkpt lat="34.960122" lon="135.651958">
 <ele>166.000000</ele>
 <time>2020-03-24T17:04:48Z</time>
</trkpt>
<trkpt lat="34.960182" lon="135.651798">
 <ele>166.000000</ele>
 <time>2020-03-24T17:04:48Z</time>
</trkpt>
<trkpt lat="34.960250" lon="135.651701">
 <ele>167.100000</ele>
 <time>2020-03-24T17:04:48Z</time>
</trkpt>
<trkpt lat="34.960345" lon="135.651701">
 <ele>168.900000</ele>
 <time>2020-03-24T17:04:48Z</time>
</trkpt>
<trkpt lat="34.960482" lon="135.651712">
 <ele>170.600000</ele>
 <time>2020-03-24T17:04:48Z</time>
</trkpt>
<trkpt lat="34.960525" lon="135.651830">
 <ele>171.100000</ele>
 <time>2020-03-24T17:04:48Z</time>
</trkpt>
<trkpt lat="34.960585" lon="135.652055">
 <ele>170.900000</ele>
 <time>2020-03-24T17:04:48Z</time>
</trkpt>
<trkpt lat="34.960645" lon="135.652280">
 <ele>171.000000</ele>
 <time>2020-03-24T17:04:48Z</time>
</trkpt>
<trkpt lat="34.960671" lon="135.652484">
 <ele>171.400000</ele>
 <time>2020-03-24T17:04:49Z</time>
</trkpt>
<trkpt lat="34.960723" lon="135.652656">
 <ele>169.100000</ele>
 <time>2020-03-24T17:04:49Z</time>
</trkpt>
<trkpt lat="34.960937" lon="135.652849">
 <ele>168.500000</ele>
 <time>2020-03-24T17:04:49Z</time>
</trkpt>
<trkpt lat="34.961126" lon="135.652956">
 <ele>168.700000</ele>
 <time>2020-03-24T17:04:49Z</time>
</trkpt>
<trkpt lat="34.961298" lon="135.652978">
 <ele>168.100000</ele>
 <time>2020-03-24T17:04:49Z</time>
</trkpt>
<trkpt lat="34.961521" lon="135.652967">
 <ele>166.700000</ele>
 <time>2020-03-24T17:04:49Z</time>
</trkpt>
<trkpt lat="34.961667" lon="135.653021">
 <ele>165.900000</ele>
 <time>2020-03-24T17:04:49Z</time>
</trkpt>
<trkpt lat="34.961761" lon="135.653096">
 <ele>165.500000</ele>
 <time>2020-03-24T17:04:49Z</time>
</trkpt>
<trkpt lat="34.961795" lon="135.653224">
 <ele>164.800000</ele>
 <time>2020-03-24T17:04:50Z</time>
</trkpt>
<trkpt lat="34.961847" lon="135.653385">
 <ele>164.300000</ele>
 <time>2020-03-24T17:04:50Z</time>
</trkpt>
<trkpt lat="34.961890" lon="135.653493">
 <ele>163.800000</ele>
 <time>2020-03-24T17:04:50Z</time>
</trkpt>
<trkpt lat="34.961984" lon="135.653300">
 <ele>166.600000</ele>
 <time>2020-03-24T17:04:50Z</time>
</trkpt>
<trkpt lat="34.962079" lon="135.652945">
 <ele>172.100000</ele>
 <time>2020-03-24T17:04:50Z</time>
</trkpt>
<trkpt lat="34.962147" lon="135.652688">
 <ele>175.700000</ele>
 <time>2020-03-24T17:04:50Z</time>
</trkpt>
<trkpt lat="34.962182" lon="135.652538">
 <ele>176.600000</ele>
 <time>2020-03-24T17:04:50Z</time>
</trkpt>
<trkpt lat="34.962207" lon="135.652409">
 <ele>178.600000</ele>
 <time>2020-03-24T17:04:51Z</time>
</trkpt>
<trkpt lat="34.962207" lon="135.652291">
 <ele>179.800000</ele>
 <time>2020-03-24T17:04:51Z</time>
</trkpt>
<trkpt lat="34.962225" lon="135.652173">
 <ele>181.600000</ele>
 <time>2020-03-24T17:04:51Z</time>
</trkpt>
<trkpt lat="34.962276" lon="135.652055">
 <ele>183.300000</ele>
 <time>2020-03-24T17:04:51Z</time>
</trkpt>
<trkpt lat="34.962448" lon="135.651862">
 <ele>187.500000</ele>
 <time>2020-03-24T17:04:51Z</time>
</trkpt>
<trkpt lat="34.962585" lon="135.651690">
 <ele>191.100000</ele>
 <time>2020-03-24T17:04:51Z</time>
</trkpt>
<trkpt lat="34.962697" lon="135.651540">
 <ele>194.900000</ele>
 <time>2020-03-24T17:04:51Z</time>
</trkpt>
<trkpt lat="34.962817" lon="135.651401">
 <ele>195.100000</ele>
 <time>2020-03-24T17:04:51Z</time>
</trkpt>
<trkpt lat="34.962894" lon="135.651315">
 <ele>195.900000</ele>
 <time>2020-03-24T17:04:52Z</time>
</trkpt>
<trkpt lat="34.962920" lon="135.651164">
 <ele>197.300000</ele>
 <time>2020-03-24T17:04:52Z</time>
</trkpt>
<trkpt lat="34.962954" lon="135.650993">
 <ele>199.400000</ele>
 <time>2020-03-24T17:04:52Z</time>
</trkpt>
<trkpt lat="34.962954" lon="135.650875">
 <ele>201.400000</ele>
 <time>2020-03-24T17:04:52Z</time>
</trkpt>
<trkpt lat="34.962971" lon="135.650746">
 <ele>202.600000</ele>
 <time>2020-03-24T17:04:52Z</time>
</trkpt>
<trkpt lat="34.962971" lon="135.650607">
 <ele>203.600000</ele>
 <time>2020-03-24T17:04:52Z</time>
</trkpt>
<trkpt lat="34.962988" lon="135.650489">
 <ele>205.400000</ele>
 <time>2020-03-24T17:04:52Z</time>
</trkpt>
<trkpt lat="34.962988" lon="135.650349">
 <ele>207.500000</ele>
 <time>2020-03-24T17:04:52Z</time>
</trkpt>
<trkpt lat="34.962988" lon="135.650220">
 <ele>208.700000</ele>
 <time>2020-03-24T17:04:53Z</time>
</trkpt>
<trkpt lat="34.962928" lon="135.650145">
 <ele>209.600000</ele>
 <time>2020-03-24T17:04:53Z</time>
</trkpt>
<trkpt lat="34.962843" lon="135.650145">
 <ele>210.100000</ele>
 <time>2020-03-24T17:04:53Z</time>
</trkpt>
<trkpt lat="34.962740" lon="135.650124">
 <ele>212.500000</ele>
 <time>2020-03-24T17:04:53Z</time>
</trkpt>
<trkpt lat="34.962602" lon="135.650199">
 <ele>213.600000</ele>
 <time>2020-03-24T17:04:53Z</time>
</trkpt>
<trkpt lat="34.962448" lon="135.650285">
 <ele>214.600000</ele>
 <time>2020-03-24T17:04:53Z</time>
</trkpt>
<trkpt lat="34.962319" lon="135.650317">
 <ele>215.900000</ele>
 <time>2020-03-24T17:04:53Z</time>
</trkpt>
<trkpt lat="34.962190" lon="135.650338">
 <ele>216.600000</ele>
 <time>2020-03-24T17:04:53Z</time>
</trkpt>
<trkpt lat="34.962062" lon="135.650317">
 <ele>217.300000</ele>
 <time>2020-03-24T17:04:54Z</time>
</trkpt>
<trkpt lat="34.961950" lon="135.650306">
 <ele>217.200000</ele>
 <time>2020-03-24T17:04:54Z</time>
</trkpt>
<trkpt lat="34.961881" lon="135.650306">
 <ele>216.900000</ele>
 <time>2020-03-24T17:04:54Z</time>
</trkpt>
<trkpt lat="34.961813" lon="135.650274">
 <ele>217.600000</ele>
 <time>2020-03-24T17:04:54Z</time>
</trkpt>
<trkpt lat="34.961753" lon="135.650210">
 <ele>218.700000</ele>
 <time>2020-03-24T17:04:54Z</time>
</trkpt>
<trkpt lat="34.961727" lon="135.650070">
 <ele>222.100000</ele>
 <time>2020-03-24T17:04:54Z</time>
</trkpt>
<trkpt lat="34.961735" lon="135.649276">
 <ele>244.300000</ele>
 <time>2020-03-24T17:04:54Z</time>
</trkpt>
<trkpt lat="34.961512" lon="135.649008">
 <ele>245.500000</ele>
 <time>2020-03-24T17:04:54Z</time>
</trkpt>
<trkpt lat="34.961289" lon="135.648836">
 <ele>251.400000</ele>
 <time>2020-03-24T17:04:55Z</time>
</trkpt>
<trkpt lat="34.960843" lon="135.648450">
 <ele>244.900000</ele>
 <time>2020-03-24T17:04:55Z</time>
</trkpt>
<trkpt lat="34.960680" lon="135.648332">
 <ele>247.600000</ele>
 <time>2020-03-24T17:04:55Z</time>
</trkpt>
<trkpt lat="34.960551" lon="135.648182">
 <ele>254.200000</ele>
 <time>2020-03-24T17:04:55Z</time>
</trkpt>
<trkpt lat="34.960396" lon="135.648085">
 <ele>255.100000</ele>
 <time>2020-03-24T17:04:55Z</time>
</trkpt>
<trkpt lat="34.960242" lon="135.648032">
 <ele>253.300000</ele>
 <time>2020-03-24T17:04:55Z</time>
</trkpt>
<trkpt lat="34.960019" lon="135.648032">
 <ele>256.700000</ele>
 <time>2020-03-24T17:04:55Z</time>
</trkpt>
<trkpt lat="34.959778" lon="135.648053">
 <ele>263.200000</ele>
 <time>2020-03-24T17:04:56Z</time>
</trkpt>
<trkpt lat="34.959538" lon="135.648085">
 <ele>263.800000</ele>
 <time>2020-03-24T17:04:56Z</time>
</trkpt>
<trkpt lat="34.959384" lon="135.648139">
 <ele>263.800000</ele>
 <time>2020-03-24T17:04:56Z</time>
</trkpt>
<trkpt lat="34.959238" lon="135.648246">
 <ele>268.000000</ele>
 <time>2020-03-24T17:04:56Z</time>
</trkpt>
<trkpt lat="34.959083" lon="135.648354">
 <ele>280.400000</ele>
 <time>2020-03-24T17:04:56Z</time>
</trkpt>
<trkpt lat="34.958929" lon="135.648429">
 <ele>281.500000</ele>
 <time>2020-03-24T17:04:56Z</time>
</trkpt>
<trkpt lat="34.958809" lon="135.648482">
 <ele>281.200000</ele>
 <time>2020-03-24T17:04:56Z</time>
</trkpt>
<trkpt lat="34.958688" lon="135.648461">
 <ele>281.600000</ele>
 <time>2020-03-24T17:04:56Z</time>
</trkpt>
<trkpt lat="34.958611" lon="135.648429">
 <ele>283.100000</ele>
 <time>2020-03-24T17:04:57Z</time>
</trkpt>
<trkpt lat="34.958508" lon="135.648236">
 <ele>286.800000</ele>
 <time>2020-03-24T17:04:57Z</time>
</trkpt>
<trkpt lat="34.958465" lon="135.648053">
 <ele>285.900000</ele>
 <time>2020-03-24T17:04:57Z</time>
</trkpt>
<trkpt lat="34.958508" lon="135.647924">
 <ele>289.100000</ele>
 <time>2020-03-24T17:04:57Z</time>
</trkpt>
<trkpt lat="34.958568" lon="135.647774">
 <ele>293.200000</ele>
 <time>2020-03-24T17:04:57Z</time>
</trkpt>
<trkpt lat="34.958637" lon="135.647667">
 <ele>292.400000</ele>
 <time>2020-03-24T17:04:57Z</time>
</trkpt>
<trkpt lat="34.958697" lon="135.647581">
 <ele>290.500000</ele>
 <time>2020-03-24T17:04:57Z</time>
</trkpt>
<trkpt lat="34.958809" lon="135.647452">
 <ele>291.600000</ele>
 <time>2020-03-24T17:04:57Z</time>
</trkpt>
<trkpt lat="34.958894" lon="135.647334">
 <ele>291.000000</ele>
 <time>2020-03-24T17:04:58Z</time>
</trkpt>
<trkpt lat="34.958929" lon="135.647259">
 <ele>291.900000</ele>
 <time>2020-03-24T17:04:58Z</time>
</trkpt>
<trkpt lat="34.959015" lon="135.647227">
 <ele>293.300000</ele>
 <time>2020-03-24T17:04:58Z</time>
</trkpt>
<trkpt lat="34.959040" lon="135.647270">
 <ele>294.200000</ele>
 <time>2020-03-24T17:04:58Z</time>
</trkpt>
<trkpt lat="34.959040" lon="135.647324">
 <ele>294.400000</ele>
 <time>2020-03-24T17:04:58Z</time>
</trkpt>
<trkpt lat="34.959040" lon="135.647366">
 <ele>294.700000</ele>
 <time>2020-03-24T17:04:58Z</time>
</trkpt>
<trkpt lat="34.958869" lon="135.647667">
 <ele>297.700000</ele>
 <time>2020-03-24T17:04:58Z</time>
</trkpt>
<trkpt lat="34.958817" lon="135.647785">
 <ele>298.900000</ele>
 <time>2020-03-24T17:04:58Z</time>
</trkpt>
<trkpt lat="34.958809" lon="135.647839">
 <ele>299.300000</ele>
 <time>2020-03-24T17:04:59Z</time>
</trkpt>
<trkpt lat="34.958791" lon="135.647914">
 <ele>299.000000</ele>
 <time>2020-03-24T17:04:59Z</time>
</trkpt>
<trkpt lat="34.958800" lon="135.647999">
 <ele>297.800000</ele>
 <time>2020-03-24T17:04:59Z</time>
</trkpt>
<trkpt lat="34.958886" lon="135.647999">
 <ele>297.100000</ele>
 <time>2020-03-24T17:04:59Z</time>
</trkpt>
<trkpt lat="34.958980" lon="135.647914">
 <ele>297.700000</ele>
 <time>2020-03-24T17:04:59Z</time>
</trkpt>
<trkpt lat="34.959083" lon="135.647796">
 <ele>296.800000</ele>
 <time>2020-03-24T17:04:59Z</time>
</trkpt>
<trkpt lat="34.959135" lon="135.647688">
 <ele>296.600000</ele>
 <time>2020-03-24T17:04:59Z</time>
</trkpt>
<trkpt lat="34.959186" lon="135.647581">
 <ele>300.500000</ele>
 <time>2020-03-24T17:05:00Z</time>
</trkpt>
<trkpt lat="34.959332" lon="135.647495">
 <ele>301.300000</ele>
 <time>2020-03-24T17:05:00Z</time>
</trkpt>
<trkpt lat="34.959478" lon="135.647431">
 <ele>299.000000</ele>
 <time>2020-03-24T17:05:00Z</time>
</trkpt>
<trkpt lat="34.959572" lon="135.647270">
 <ele>307.600000</ele>
 <time>2020-03-24T17:05:00Z</time>
</trkpt>
<trkpt lat="34.959658" lon="135.647130">
 <ele>312.600000</ele>
 <time>2020-03-24T17:05:00Z</time>
</trkpt>
<trkpt lat="34.959753" lon="135.646991">
 <ele>322.000000</ele>
 <time>2020-03-24T17:05:00Z</time>
</trkpt>
<trkpt lat="34.960027" lon="135.646809">
 <ele>324.500000</ele>
 <time>2020-03-24T17:05:00Z</time>
</trkpt>
<trkpt lat="34.960208" lon="135.646658">
 <ele>323.300000</ele>
 <time>2020-03-24T17:05:00Z</time>
</trkpt>
<trkpt lat="34.960336" lon="135.646530">
 <ele>327.600000</ele>
 <time>2020-03-24T17:05:01Z</time>
</trkpt>
<trkpt lat="34.960499" lon="135.646476">
 <ele>331.000000</ele>
 <time>2020-03-24T17:05:01Z</time>
</trkpt>
<trkpt lat="34.960594" lon="135.646508">
 <ele>330.100000</ele>
 <time>2020-03-24T17:05:01Z</time>
</trkpt>
<trkpt lat="34.960808" lon="135.646605">
 <ele>330.200000</ele>
 <time>2020-03-24T17:05:01Z</time>
</trkpt>
<trkpt lat="34.960997" lon="135.646615">
 <ele>332.300000</ele>
 <time>2020-03-24T17:05:01Z</time>
</trkpt>
<trkpt lat="34.961263" lon="135.646551">
 <ele>334.100000</ele>
 <time>2020-03-24T17:05:01Z</time>
</trkpt>
<trkpt lat="34.961366" lon="135.646508">
 <ele>335.900000</ele>
 <time>2020-03-24T17:05:01Z</time>
</trkpt>
<trkpt lat="34.961512" lon="135.646455">
 <ele>337.300000</ele>
 <time>2020-03-24T17:05:01Z</time>
</trkpt>
<trkpt lat="34.961641" lon="135.646508">
 <ele>338.600000</ele>
 <time>2020-03-24T17:05:02Z</time>
</trkpt>
<trkpt lat="34.961753" lon="135.646594">
 <ele>342.400000</ele>
 <time>2020-03-24T17:05:02Z</time>
</trkpt>
<trkpt lat="34.961813" lon="135.646691">
 <ele>345.000000</ele>
 <time>2020-03-24T17:05:02Z</time>
</trkpt>
<trkpt lat="34.961916" lon="135.646798">
 <ele>348.100000</ele>
 <time>2020-03-24T17:05:02Z</time>
</trkpt>
<trkpt lat="34.961941" lon="135.646959">
 <ele>345.500000</ele>
 <time>2020-03-24T17:05:02Z</time>
</trkpt>
<trkpt lat="34.961993" lon="135.647098">
 <ele>344.000000</ele>
 <time>2020-03-24T17:05:02Z</time>
</trkpt>
<trkpt lat="34.962053" lon="135.647206">
 <ele>345.600000</ele>
 <time>2020-03-24T17:05:02Z</time>
</trkpt>
<trkpt lat="34.962079" lon="135.647270">
 <ele>345.100000</ele>
 <time>2020-03-24T17:05:03Z</time>
</trkpt>
<trkpt lat="34.962130" lon="135.647313">
 <ele>345.600000</ele>
 <time>2020-03-24T17:05:03Z</time>
</trkpt>
<trkpt lat="34.962216" lon="135.647334">
 <ele>348.300000</ele>
 <time>2020-03-24T17:05:03Z</time>
</trkpt>
<trkpt lat="34.962293" lon="135.647291">
 <ele>349.700000</ele>
 <time>2020-03-24T17:05:03Z</time>
</trkpt>
<trkpt lat="34.962293" lon="135.647163">
 <ele>353.800000</ele>
 <time>2020-03-24T17:05:03Z</time>
</trkpt>
<trkpt lat="34.962156" lon="135.646873">
 <ele>361.500000</ele>
 <time>2020-03-24T17:05:03Z</time>
</trkpt>
<trkpt lat="34.961967" lon="135.646583">
 <ele>358.800000</ele>
 <time>2020-03-24T17:05:03Z</time>
</trkpt>
<trkpt lat="34.961778" lon="135.646261">
 <ele>359.000000</ele>
 <time>2020-03-24T17:05:03Z</time>
</trkpt>
<trkpt lat="34.961667" lon="135.646079">
 <ele>361.900000</ele>
 <time>2020-03-24T17:05:04Z</time>
</trkpt>
<trkpt lat="34.961598" lon="135.645993">
 <ele>363.500000</ele>
 <time>2020-03-24T17:05:04Z</time>
</trkpt>
<trkpt lat="34.961478" lon="135.645940">
 <ele>364.600000</ele>
 <time>2020-03-24T17:05:04Z</time>
</trkpt>
<trkpt lat="34.961358" lon="135.645940">
 <ele>365.000000</ele>
 <time>2020-03-24T17:05:04Z</time>
</trkpt>
<trkpt lat="34.961220" lon="135.645940">
 <ele>366.600000</ele>
 <time>2020-03-24T17:05:04Z</time>
</trkpt>
<trkpt lat="34.961117" lon="135.645961">
 <ele>368.600000</ele>
 <time>2020-03-24T17:05:04Z</time>
</trkpt>
<trkpt lat="34.960774" lon="135.645961">
 <ele>369.500000</ele>
 <time>2020-03-24T17:05:04Z</time>
</trkpt>
<trkpt lat="34.960662" lon="135.645940">
 <ele>368.900000</ele>
 <time>2020-03-24T17:05:05Z</time>
</trkpt>
<trkpt lat="34.960534" lon="135.645929">
 <ele>368.600000</ele>
 <time>2020-03-24T17:05:05Z</time>
</trkpt>
<trkpt lat="34.960405" lon="135.645907">
 <ele>371.900000</ele>
 <time>2020-03-24T17:05:05Z</time>
</trkpt>
<trkpt lat="34.960113" lon="135.645907">
 <ele>375.100000</ele>
 <time>2020-03-24T17:05:05Z</time>
</trkpt>
<trkpt lat="34.960002" lon="135.645907">
 <ele>375.100000</ele>
 <time>2020-03-24T17:05:05Z</time>
</trkpt>
<trkpt lat="34.959942" lon="135.645800">
 <ele>376.500000</ele>
 <time>2020-03-24T17:05:05Z</time>
</trkpt>
<trkpt lat="34.959950" lon="135.645704">
 <ele>378.500000</ele>
 <time>2020-03-24T17:05:05Z</time>
</trkpt>
<trkpt lat="34.960010" lon="135.645639">
 <ele>382.100000</ele>
 <time>2020-03-24T17:05:05Z</time>
</trkpt>
<trkpt lat="34.960079" lon="135.645639">
 <ele>384.500000</ele>
 <time>2020-03-24T17:05:06Z</time>
</trkpt>
<trkpt lat="34.960139" lon="135.645704">
 <ele>383.800000</ele>
 <time>2020-03-24T17:05:06Z</time>
</trkpt>
<trkpt lat="34.960208" lon="135.645736">
 <ele>382.300000</ele>
 <time>2020-03-24T17:05:06Z</time>
</trkpt>
<trkpt lat="34.960311" lon="135.645736">
 <ele>381.700000</ele>
 <time>2020-03-24T17:05:06Z</time>
</trkpt>
<trkpt lat="34.960422" lon="135.645736">
 <ele>380.800000</ele>
 <time>2020-03-24T17:05:06Z</time>
</trkpt>
<trkpt lat="34.960517" lon="135.645736">
 <ele>380.200000</ele>
 <time>2020-03-24T17:05:06Z</time>
</trkpt>
<trkpt lat="34.960662" lon="135.645693">
 <ele>383.600000</ele>
 <time>2020-03-24T17:05:06Z</time>
</trkpt>
<trkpt lat="34.960877" lon="135.645639">
 <ele>387.400000</ele>
 <time>2020-03-24T17:05:07Z</time>
</trkpt>
<trkpt lat="34.960971" lon="135.645607">
 <ele>390.400000</ele>
 <time>2020-03-24T17:05:07Z</time>
</trkpt>
<trkpt lat="34.961117" lon="135.645510">
 <ele>394.300000</ele>
 <time>2020-03-24T17:05:07Z</time>
</trkpt>
<trkpt lat="34.961238" lon="135.645435">
 <ele>397.900000</ele>
 <time>2020-03-24T17:05:07Z</time>
</trkpt>
<trkpt lat="34.961366" lon="135.645360">
 <ele>401.600000</ele>
 <time>2020-03-24T17:05:07Z</time>
</trkpt>
<trkpt lat="34.961486" lon="135.645328">
 <ele>401.100000</ele>
 <time>2020-03-24T17:05:07Z</time>
</trkpt>
<trkpt lat="34.961641" lon="135.645349">
 <ele>400.700000</ele>
 <time>2020-03-24T17:05:07Z</time>
</trkpt>
<trkpt lat="34.961753" lon="135.645371">
 <ele>400.300000</ele>
 <time>2020-03-24T17:05:07Z</time>
</trkpt>
<trkpt lat="34.961641" lon="135.645349">
 <ele>400.700000</ele>
 <time>2020-03-24T17:05:08Z</time>
</trkpt>
<trkpt lat="34.961486" lon="135.645328">
 <ele>401.100000</ele>
 <time>2020-03-24T17:05:08Z</time>
</trkpt>
<trkpt lat="34.961366" lon="135.645360">
 <ele>401.600000</ele>
 <time>2020-03-24T17:05:08Z</time>
</trkpt>
<trkpt lat="34.961238" lon="135.645435">
 <ele>397.900000</ele>
 <time>2020-03-24T17:05:08Z</time>
</trkpt>
<trkpt lat="34.961117" lon="135.645510">
 <ele>394.300000</ele>
 <time>2020-03-24T17:05:08Z</time>
</trkpt>
<trkpt lat="34.960971" lon="135.645607">
 <ele>390.400000</ele>
 <time>2020-03-24T17:05:08Z</time>
</trkpt>
<trkpt lat="34.960877" lon="135.645639">
 <ele>387.400000</ele>
 <time>2020-03-24T17:05:08Z</time>
</trkpt>
<trkpt lat="34.960662" lon="135.645693">
 <ele>383.600000</ele>
 <time>2020-03-24T17:05:08Z</time>
</trkpt>
<trkpt lat="34.960517" lon="135.645736">
 <ele>380.200000</ele>
 <time>2020-03-24T17:05:09Z</time>
</trkpt>
<trkpt lat="34.960422" lon="135.645736">
 <ele>380.800000</ele>
 <time>2020-03-24T17:05:09Z</time>
</trkpt>
<trkpt lat="34.960311" lon="135.645736">
 <ele>381.700000</ele>
 <time>2020-03-24T17:05:09Z</time>
</trkpt>
<trkpt lat="34.960208" lon="135.645736">
 <ele>382.300000</ele>
 <time>2020-03-24T17:05:09Z</time>
</trkpt>
<trkpt lat="34.960139" lon="135.645704">
 <ele>383.800000</ele>
 <time>2020-03-24T17:05:09Z</time>
</trkpt>
<trkpt lat="34.960079" lon="135.645639">
 <ele>384.500000</ele>
 <time>2020-03-24T17:05:09Z</time>
</trkpt>
<trkpt lat="34.960010" lon="135.645639">
 <ele>382.100000</ele>
 <time>2020-03-24T17:05:09Z</time>
</trkpt>
<trkpt lat="34.959950" lon="135.645704">
 <ele>378.500000</ele>
 <time>2020-03-24T17:05:09Z</time>
</trkpt>
<trkpt lat="34.959942" lon="135.645800">
 <ele>376.500000</ele>
 <time>2020-03-24T17:05:10Z</time>
</trkpt>
<trkpt lat="34.960002" lon="135.645907">
 <ele>375.100000</ele>
 <time>2020-03-24T17:05:10Z</time>
</trkpt>
<trkpt lat="34.960113" lon="135.645907">
 <ele>375.100000</ele>
 <time>2020-03-24T17:05:10Z</time>
</trkpt>
<trkpt lat="34.960405" lon="135.645907">
 <ele>371.900000</ele>
 <time>2020-03-24T17:05:10Z</time>
</trkpt>
<trkpt lat="34.960534" lon="135.645929">
 <ele>368.600000</ele>
 <time>2020-03-24T17:05:10Z</time>
</trkpt>
<trkpt lat="34.960662" lon="135.645940">
 <ele>368.900000</ele>
 <time>2020-03-24T17:05:10Z</time>
</trkpt>
<trkpt lat="34.960774" lon="135.645961">
 <ele>369.500000</ele>
 <time>2020-03-24T17:05:10Z</time>
</trkpt>
<trkpt lat="34.961117" lon="135.645961">
 <ele>368.600000</ele>
 <time>2020-03-24T17:05:11Z</time>
</trkpt>
<trkpt lat="34.961220" lon="135.645940">
 <ele>366.600000</ele>
 <time>2020-03-24T17:05:11Z</time>
</trkpt>
<trkpt lat="34.961358" lon="135.645940">
 <ele>365.000000</ele>
 <time>2020-03-24T17:05:11Z</time>
</trkpt>
<trkpt lat="34.961478" lon="135.645940">
 <ele>364.600000</ele>
 <time>2020-03-24T17:05:11Z</time>
</trkpt>
<trkpt lat="34.961598" lon="135.645993">
 <ele>363.500000</ele>
 <time>2020-03-24T17:05:11Z</time>
</trkpt>
<trkpt lat="34.961667" lon="135.646079">
 <ele>361.900000</ele>
 <time>2020-03-24T17:05:11Z</time>
</trkpt>
<trkpt lat="34.961778" lon="135.646261">
 <ele>359.000000</ele>
 <time>2020-03-24T17:05:11Z</time>
</trkpt>
<trkpt lat="34.961967" lon="135.646583">
 <ele>358.800000</ele>
 <time>2020-03-24T17:05:11Z</time>
</trkpt>
<trkpt lat="34.962156" lon="135.646873">
 <ele>361.500000</ele>
 <time>2020-03-24T17:05:12Z</time>
</trkpt>
<trkpt lat="34.962293" lon="135.647163">
 <ele>353.800000</ele>
 <time>2020-03-24T17:05:12Z</time>
</trkpt>
<trkpt lat="34.962293" lon="135.647291">
 <ele>349.700000</ele>
 <time>2020-03-24T17:05:12Z</time>
</trkpt>
<trkpt lat="34.962216" lon="135.647334">
 <ele>348.300000</ele>
 <time>2020-03-24T17:05:12Z</time>
</trkpt>
<trkpt lat="34.962130" lon="135.647313">
 <ele>345.600000</ele>
 <time>2020-03-24T17:05:12Z</time>
</trkpt>
<trkpt lat="34.962079" lon="135.647270">
 <ele>345.100000</ele>
 <time>2020-03-24T17:05:12Z</time>
</trkpt>
<trkpt lat="34.962053" lon="135.647206">
 <ele>345.600000</ele>
 <time>2020-03-24T17:05:12Z</time>
</trkpt>
<trkpt lat="34.961993" lon="135.647098">
 <ele>344.000000</ele>
 <time>2020-03-24T17:05:12Z</time>
</trkpt>
<trkpt lat="34.961941" lon="135.646959">
 <ele>345.500000</ele>
 <time>2020-03-24T17:05:13Z</time>
</trkpt>
<trkpt lat="34.961916" lon="135.646798">
 <ele>348.100000</ele>
 <time>2020-03-24T17:05:13Z</time>
</trkpt>
<trkpt lat="34.961813" lon="135.646691">
 <ele>345.000000</ele>
 <time>2020-03-24T17:05:13Z</time>
</trkpt>
<trkpt lat="34.961753" lon="135.646594">
 <ele>342.400000</ele>
 <time>2020-03-24T17:05:13Z</time>
</trkpt>
<trkpt lat="34.961641" lon="135.646508">
 <ele>338.600000</ele>
 <time>2020-03-24T17:05:13Z</time>
</trkpt>
<trkpt lat="34.961512" lon="135.646455">
 <ele>337.300000</ele>
 <time>2020-03-24T17:05:13Z</time>
</trkpt>
<trkpt lat="34.961366" lon="135.646508">
 <ele>335.900000</ele>
 <time>2020-03-24T17:05:13Z</time>
</trkpt>
<trkpt lat="34.961263" lon="135.646551">
 <ele>334.100000</ele>
 <time>2020-03-24T17:05:13Z</time>
</trkpt>
<trkpt lat="34.960997" lon="135.646615">
 <ele>332.300000</ele>
 <time>2020-03-24T17:05:14Z</time>
</trkpt>
<trkpt lat="34.960808" lon="135.646605">
 <ele>330.200000</ele>
 <time>2020-03-24T17:05:14Z</time>
</trkpt>
<trkpt lat="34.960594" lon="135.646508">
 <ele>330.100000</ele>
 <time>2020-03-24T17:05:14Z</time>
</trkpt>
<trkpt lat="34.960499" lon="135.646476">
 <ele>331.000000</ele>
 <time>2020-03-24T17:05:14Z</time>
</trkpt>
<trkpt lat="34.960336" lon="135.646530">
 <ele>327.600000</ele>
 <time>2020-03-24T17:05:14Z</time>
</trkpt>
<trkpt lat="34.960208" lon="135.646658">
 <ele>323.300000</ele>
 <time>2020-03-24T17:05:14Z</time>
</trkpt>
<trkpt lat="34.960027" lon="135.646809">
 <ele>324.500000</ele>
 <time>2020-03-24T17:05:14Z</time>
</trkpt>
<trkpt lat="34.959753" lon="135.646991">
 <ele>322.000000</ele>
 <time>2020-03-24T17:05:15Z</time>
</trkpt>
<trkpt lat="34.959658" lon="135.647130">
 <ele>312.600000</ele>
 <time>2020-03-24T17:05:15Z</time>
</trkpt>
<trkpt lat="34.959572" lon="135.647270">
 <ele>307.600000</ele>
 <time>2020-03-24T17:05:15Z</time>
</trkpt>
<trkpt lat="34.959478" lon="135.647431">
 <ele>299.000000</ele>
 <time>2020-03-24T17:05:15Z</time>
</trkpt>
<trkpt lat="34.959332" lon="135.647495">
 <ele>301.300000</ele>
 <time>2020-03-24T17:05:15Z</time>
</trkpt>
<trkpt lat="34.959186" lon="135.647581">
 <ele>300.500000</ele>
 <time>2020-03-24T17:05:15Z</time>
</trkpt>
<trkpt lat="34.959135" lon="135.647688">
 <ele>296.600000</ele>
 <time>2020-03-24T17:05:15Z</time>
</trkpt>
<trkpt lat="34.959083" lon="135.647796">
 <ele>296.800000</ele>
 <time>2020-03-24T17:05:15Z</time>
</trkpt>
<trkpt lat="34.958980" lon="135.647914">
 <ele>297.700000</ele>
 <time>2020-03-24T17:05:16Z</time>
</trkpt>
<trkpt lat="34.958886" lon="135.647999">
 <ele>297.100000</ele>
 <time>2020-03-24T17:05:16Z</time>
</trkpt>
<trkpt lat="34.958800" lon="135.647999">
 <ele>297.800000</ele>
 <time>2020-03-24T17:05:16Z</time>
</trkpt>
<trkpt lat="34.958791" lon="135.647914">
 <ele>299.000000</ele>
 <time>2020-03-24T17:05:16Z</time>
</trkpt>
<trkpt lat="34.958809" lon="135.647839">
 <ele>299.300000</ele>
 <time>2020-03-24T17:05:16Z</time>
</trkpt>
<trkpt lat="34.958817" lon="135.647785">
 <ele>298.900000</ele>
 <time>2020-03-24T17:05:16Z</time>
</trkpt>
<trkpt lat="34.958869" lon="135.647667">
 <ele>297.700000</ele>
 <time>2020-03-24T17:05:16Z</time>
</trkpt>
<trkpt lat="34.959040" lon="135.647366">
 <ele>294.700000</ele>
 <time>2020-03-24T17:05:16Z</time>
</trkpt>
<trkpt lat="34.959040" lon="135.647324">
 <ele>294.400000</ele>
 <time>2020-03-24T17:05:17Z</time>
</trkpt>
<trkpt lat="34.959040" lon="135.647270">
 <ele>294.200000</ele>
 <time>2020-03-24T17:05:17Z</time>
</trkpt>
<trkpt lat="34.959015" lon="135.647227">
 <ele>293.300000</ele>
 <time>2020-03-24T17:05:17Z</time>
</trkpt>
<trkpt lat="34.958929" lon="135.647259">
 <ele>291.900000</ele>
 <time>2020-03-24T17:05:17Z</time>
</trkpt>
<trkpt lat="34.958894" lon="135.647334">
 <ele>291.000000</ele>
 <time>2020-03-24T17:05:17Z</time>
</trkpt>
<trkpt lat="34.958809" lon="135.647452">
 <ele>291.600000</ele>
 <time>2020-03-24T17:05:17Z</time>
</trkpt>
<trkpt lat="34.958697" lon="135.647581">
 <ele>290.500000</ele>
 <time>2020-03-24T17:05:17Z</time>
</trkpt>
<trkpt lat="34.958637" lon="135.647667">
 <ele>292.400000</ele>
 <time>2020-03-24T17:05:17Z</time>
</trkpt>
<trkpt lat="34.958568" lon="135.647774">
 <ele>293.200000</ele>
 <time>2020-03-24T17:05:18Z</time>
</trkpt>
<trkpt lat="34.958508" lon="135.647924">
 <ele>289.100000</ele>
 <time>2020-03-24T17:05:18Z</time>
</trkpt>
<trkpt lat="34.958465" lon="135.648053">
 <ele>285.900000</ele>
 <time>2020-03-24T17:05:18Z</time>
</trkpt>
<trkpt lat="34.958508" lon="135.648236">
 <ele>286.800000</ele>
 <time>2020-03-24T17:05:18Z</time>
</trkpt>
<trkpt lat="34.958611" lon="135.648429">
 <ele>283.100000</ele>
 <time>2020-03-24T17:05:18Z</time>
</trkpt>
<trkpt lat="34.958688" lon="135.648461">
 <ele>281.600000</ele>
 <time>2020-03-24T17:05:18Z</time>
</trkpt>
<trkpt lat="34.958809" lon="135.648482">
 <ele>281.200000</ele>
 <time>2020-03-24T17:05:18Z</time>
</trkpt>
<trkpt lat="34.958929" lon="135.648429">
 <ele>281.500000</ele>
 <time>2020-03-24T17:05:19Z</time>
</trkpt>
<trkpt lat="34.959083" lon="135.648354">
 <ele>280.400000</ele>
 <time>2020-03-24T17:05:19Z</time>
</trkpt>
<trkpt lat="34.959238" lon="135.648246">
 <ele>268.000000</ele>
 <time>2020-03-24T17:05:19Z</time>
</trkpt>
<trkpt lat="34.959384" lon="135.648139">
 <ele>263.800000</ele>
 <time>2020-03-24T17:05:19Z</time>
</trkpt>
<trkpt lat="34.959538" lon="135.648085">
 <ele>263.800000</ele>
 <time>2020-03-24T17:05:19Z</time>
</trkpt>
<trkpt lat="34.959778" lon="135.648053">
 <ele>263.200000</ele>
 <time>2020-03-24T17:05:19Z</time>
</trkpt>
<trkpt lat="34.960019" lon="135.648032">
 <ele>256.700000</ele>
 <time>2020-03-24T17:05:19Z</time>
</trkpt>
<trkpt lat="34.960242" lon="135.648032">
 <ele>253.300000</ele>
 <time>2020-03-24T17:05:19Z</time>
</trkpt>
<trkpt lat="34.960396" lon="135.648085">
 <ele>255.100000</ele>
 <time>2020-03-24T17:05:20Z</time>
</trkpt>
<trkpt lat="34.960551" lon="135.648182">
 <ele>254.200000</ele>
 <time>2020-03-24T17:05:20Z</time>
</trkpt>
<trkpt lat="34.960680" lon="135.648332">
 <ele>247.600000</ele>
 <time>2020-03-24T17:05:20Z</time>
</trkpt>
<trkpt lat="34.960843" lon="135.648450">
 <ele>244.900000</ele>
 <time>2020-03-24T17:05:20Z</time>
</trkpt>
<trkpt lat="34.961289" lon="135.648836">
 <ele>251.400000</ele>
 <time>2020-03-24T17:05:20Z</time>
</trkpt>
<trkpt lat="34.961512" lon="135.649008">
 <ele>245.500000</ele>
 <time>2020-03-24T17:05:20Z</time>
</trkpt>
<trkpt lat="34.961735" lon="135.649276">
 <ele>244.300000</ele>
 <time>2020-03-24T17:05:20Z</time>
</trkpt>
<trkpt lat="34.961727" lon="135.650070">
 <ele>222.100000</ele>
 <time>2020-03-24T17:05:20Z</time>
</trkpt>
<trkpt lat="34.961753" lon="135.650210">
 <ele>218.700000</ele>
 <time>2020-03-24T17:05:21Z</time>
</trkpt>
<trkpt lat="34.961813" lon="135.650274">
 <ele>217.600000</ele>
 <time>2020-03-24T17:05:21Z</time>
</trkpt>
<trkpt lat="34.961881" lon="135.650306">
 <ele>216.900000</ele>
 <time>2020-03-24T17:05:21Z</time>
</trkpt>
<trkpt lat="34.961950" lon="135.650306">
 <ele>217.200000</ele>
 <time>2020-03-24T17:05:21Z</time>
</trkpt>
<trkpt lat="34.962062" lon="135.650317">
 <ele>217.300000</ele>
 <time>2020-03-24T17:05:21Z</time>
</trkpt>
<trkpt lat="34.962190" lon="135.650338">
 <ele>216.600000</ele>
 <time>2020-03-24T17:05:21Z</time>
</trkpt>
<trkpt lat="34.962319" lon="135.650317">
 <ele>215.900000</ele>
 <time>2020-03-24T17:05:21Z</time>
</trkpt>
<trkpt lat="34.962448" lon="135.650285">
 <ele>214.600000</ele>
 <time>2020-03-24T17:05:22Z</time>
</trkpt>
<trkpt lat="34.962602" lon="135.650199">
 <ele>213.600000</ele>
 <time>2020-03-24T17:05:22Z</time>
</trkpt>
<trkpt lat="34.962740" lon="135.650124">
 <ele>212.500000</ele>
 <time>2020-03-24T17:05:22Z</time>
</trkpt>
<trkpt lat="34.962843" lon="135.650145">
 <ele>210.100000</ele>
 <time>2020-03-24T17:05:22Z</time>
</trkpt>
<trkpt lat="34.962928" lon="135.650145">
 <ele>209.600000</ele>
 <time>2020-03-24T17:05:22Z</time>
</trkpt>
<trkpt lat="34.962988" lon="135.650220">
 <ele>208.700000</ele>
 <time>2020-03-24T17:05:22Z</time>
</trkpt>
<trkpt lat="34.962988" lon="135.650349">
 <ele>207.500000</ele>
 <time>2020-03-24T17:05:22Z</time>
</trkpt>
<trkpt lat="34.962988" lon="135.650489">
 <ele>205.400000</ele>
 <time>2020-03-24T17:05:22Z</time>
</trkpt>
<trkpt lat="34.962971" lon="135.650607">
 <ele>203.600000</ele>
 <time>2020-03-24T17:05:23Z</time>
</trkpt>
<trkpt lat="34.962971" lon="135.650746">
 <ele>202.600000</ele>
 <time>2020-03-24T17:05:23Z</time>
</trkpt>
<trkpt lat="34.962954" lon="135.650875">
 <ele>201.400000</ele>
 <time>2020-03-24T17:05:23Z</time>
</trkpt>
<trkpt lat="34.962954" lon="135.650993">
 <ele>199.400000</ele>
 <time>2020-03-24T17:05:23Z</time>
</trkpt>
<trkpt lat="34.962920" lon="135.651164">
 <ele>197.300000</ele>
 <time>2020-03-24T17:05:23Z</time>
</trkpt>
<trkpt lat="34.962894" lon="135.651315">
 <ele>195.900000</ele>
 <time>2020-03-24T17:05:23Z</time>
</trkpt>
<trkpt lat="34.962817" lon="135.651401">
 <ele>195.100000</ele>
 <time>2020-03-24T17:05:23Z</time>
</trkpt>
<trkpt lat="34.962697" lon="135.651540">
 <ele>194.900000</ele>
 <time>2020-03-24T17:05:23Z</time>
</trkpt>
<trkpt lat="34.962585" lon="135.651690">
 <ele>191.100000</ele>
 <time>2020-03-24T17:05:24Z</time>
</trkpt>
<trkpt lat="34.962448" lon="135.651862">
 <ele>187.500000</ele>
 <time>2020-03-24T17:05:24Z</time>
</trkpt>
<trkpt lat="34.962276" lon="135.652055">
 <ele>183.300000</ele>
 <time>2020-03-24T17:05:24Z</time>
</trkpt>
<trkpt lat="34.962225" lon="135.652173">
 <ele>181.600000</ele>
 <time>2020-03-24T17:05:24Z</time>
</trkpt>
<trkpt lat="34.962207" lon="135.652291">
 <ele>179.800000</ele>
 <time>2020-03-24T17:05:24Z</time>
</trkpt>
<trkpt lat="34.962207" lon="135.652409">
 <ele>178.600000</ele>
 <time>2020-03-24T17:05:24Z</time>
</trkpt>
<trkpt lat="34.962182" lon="135.652538">
 <ele>176.600000</ele>
 <time>2020-03-24T17:05:24Z</time>
</trkpt>
<trkpt lat="34.962147" lon="135.652688">
 <ele>175.700000</ele>
 <time>2020-03-24T17:05:24Z</time>
</trkpt>
<trkpt lat="34.962079" lon="135.652945">
 <ele>172.100000</ele>
 <time>2020-03-24T17:05:25Z</time>
</trkpt>
<trkpt lat="34.961984" lon="135.653300">
 <ele>166.600000</ele>
 <time>2020-03-24T17:05:25Z</time>
</trkpt>
<trkpt lat="34.961890" lon="135.653493">
 <ele>163.800000</ele>
 <time>2020-03-24T17:05:25Z</time>
</trkpt>
<trkpt lat="34.961847" lon="135.653385">
 <ele>164.300000</ele>
 <time>2020-03-24T17:05:25Z</time>
</trkpt>
<trkpt lat="34.961795" lon="135.653224">
 <ele>164.800000</ele>
 <time>2020-03-24T17:05:25Z</time>
</trkpt>
<trkpt lat="34.961761" lon="135.653096">
 <ele>165.500000</ele>
 <time>2020-03-24T17:05:25Z</time>
</trkpt>
<trkpt lat="34.961667" lon="135.653021">
 <ele>165.900000</ele>
 <time>2020-03-24T17:05:25Z</time>
</trkpt>
<trkpt lat="34.961521" lon="135.652967">
 <ele>166.700000</ele>
 <time>2020-03-24T17:05:25Z</time>
</trkpt>
<trkpt lat="34.961298" lon="135.652978">
 <ele>168.100000</ele>
 <time>2020-03-24T17:05:26Z</time>
</trkpt>
<trkpt lat="34.961126" lon="135.652956">
 <ele>168.700000</ele>
 <time>2020-03-24T17:05:26Z</time>
</trkpt>
<trkpt lat="34.960937" lon="135.652849">
 <ele>168.500000</ele>
 <time>2020-03-24T17:05:26Z</time>
</trkpt>
<trkpt lat="34.960723" lon="135.652656">
 <ele>169.100000</ele>
 <time>2020-03-24T17:05:26Z</time>
</trkpt>
<trkpt lat="34.960671" lon="135.652484">
 <ele>171.400000</ele>
 <time>2020-03-24T17:05:26Z</time>
</trkpt>
<trkpt lat="34.960645" lon="135.652280">
 <ele>171.000000</ele>
 <time>2020-03-24T17:05:26Z</time>
</trkpt>
<trkpt lat="34.960585" lon="135.652055">
 <ele>170.900000</ele>
 <time>2020-03-24T17:05:26Z</time>
</trkpt>
<trkpt lat="34.960525" lon="135.651830">
 <ele>171.100000</ele>
 <time>2020-03-24T17:05:27Z</time>
</trkpt>
<trkpt lat="34.960482" lon="135.651712">
 <ele>170.600000</ele>
 <time>2020-03-24T17:05:27Z</time>
</trkpt>
<trkpt lat="34.960345" lon="135.651701">
 <ele>168.900000</ele>
 <time>2020-03-24T17:05:27Z</time>
</trkpt>
<trkpt lat="34.960250" lon="135.651701">
 <ele>167.100000</ele>
 <time>2020-03-24T17:05:27Z</time>
</trkpt>
<trkpt lat="34.960182" lon="135.651798">
 <ele>166.000000</ele>
 <time>2020-03-24T17:05:27Z</time>
</trkpt>
<trkpt lat="34.960122" lon="135.651958">
 <ele>166.000000</ele>
 <time>2020-03-24T17:05:27Z</time>
</trkpt>
<trkpt lat="34.960027" lon="135.652184">
 <ele>165.500000</ele>
 <time>2020-03-24T17:05:27Z</time>
</trkpt>
<trkpt lat="34.959967" lon="135.652323">
 <ele>165.800000</ele>
 <time>2020-03-24T17:05:27Z</time>
</trkpt>
<trkpt lat="34.959942" lon="135.652431">
 <ele>165.300000</ele>
 <time>2020-03-24T17:05:28Z</time>
</trkpt>
<trkpt lat="34.959942" lon="135.652570">
 <ele>163.700000</ele>
 <time>2020-03-24T17:05:28Z</time>
</trkpt>
<trkpt lat="34.959907" lon="135.652752">
 <ele>161.700000</ele>
 <time>2020-03-24T17:05:28Z</time>
</trkpt>
<trkpt lat="34.959881" lon="135.653106">
 <ele>156.800000</ele>
 <time>2020-03-24T17:05:28Z</time>
</trkpt>
<trkpt lat="34.959839" lon="135.653300">
 <ele>153.900000</ele>
 <time>2020-03-24T17:05:28Z</time>
</trkpt>
<trkpt lat="34.959778" lon="135.653482">
 <ele>150.200000</ele>
 <time>2020-03-24T17:05:28Z</time>
</trkpt>
<trkpt lat="34.959710" lon="135.653707">
 <ele>146.700000</ele>
 <time>2020-03-24T17:05:28Z</time>
</trkpt>
<trkpt lat="34.959607" lon="135.653900">
 <ele>143.600000</ele>
 <time>2020-03-24T17:05:28Z</time>
</trkpt>
<trkpt lat="34.959461" lon="135.654083">
 <ele>139.300000</ele>
 <time>2020-03-24T17:05:29Z</time>
</trkpt>
<trkpt lat="34.959375" lon="135.654169">
 <ele>137.300000</ele>
 <time>2020-03-24T17:05:29Z</time>
</trkpt>
<trkpt lat="34.959195" lon="135.654276">
 <ele>134.600000</ele>
 <time>2020-03-24T17:05:29Z</time>
</trkpt>
<trkpt lat="34.959015" lon="135.654394">
 <ele>130.500000</ele>
 <time>2020-03-24T17:05:29Z</time>
</trkpt>
<trkpt lat="34.958903" lon="135.654458">
 <ele>128.600000</ele>
 <time>2020-03-24T17:05:29Z</time>
</trkpt>
<trkpt lat="34.958731" lon="135.654587">
 <ele>125.400000</ele>
 <time>2020-03-24T17:05:29Z</time>
</trkpt>
<trkpt lat="34.958551" lon="135.654737">
 <ele>121.500000</ele>
 <time>2020-03-24T17:05:29Z</time>
</trkpt>
<trkpt lat="34.958465" lon="135.654844">
 <ele>120.700000</ele>
 <time>2020-03-24T17:05:29Z</time>
</trkpt>
<trkpt lat="34.958371" lon="135.654995">
 <ele>119.400000</ele>
 <time>2020-03-24T17:05:30Z</time>
</trkpt>
<trkpt lat="34.958345" lon="135.655113">
 <ele>118.800000</ele>
 <time>2020-03-24T17:05:30Z</time>
</trkpt>
<trkpt lat="34.958328" lon="135.655241">
 <ele>118.500000</ele>
 <time>2020-03-24T17:05:30Z</time>
</trkpt>
<trkpt lat="34.958328" lon="135.655477">
 <ele>117.900000</ele>
 <time>2020-03-24T17:05:30Z</time>
</trkpt>
<trkpt lat="34.958302" lon="135.655681">
 <ele>116.500000</ele>
 <time>2020-03-24T17:05:30Z</time>
</trkpt>
<trkpt lat="34.958268" lon="135.655821">
 <ele>116.100000</ele>
 <time>2020-03-24T17:05:30Z</time>
</trkpt>
<trkpt lat="34.958173" lon="135.655992">
 <ele>115.000000</ele>
 <time>2020-03-24T17:05:30Z</time>
</trkpt>
<trkpt lat="34.958105" lon="135.656153">
 <ele>114.700000</ele>
 <time>2020-03-24T17:05:30Z</time>
</trkpt>
<trkpt lat="34.958036" lon="135.656325">
 <ele>114.000000</ele>
 <time>2020-03-24T17:05:31Z</time>
</trkpt>
<trkpt lat="34.957890" lon="135.656604">
 <ele>113.000000</ele>
 <time>2020-03-24T17:05:31Z</time>
</trkpt>
<trkpt lat="34.957753" lon="135.656872">
 <ele>110.900000</ele>
 <time>2020-03-24T17:05:31Z</time>
</trkpt>
<trkpt lat="34.957624" lon="135.657140">
 <ele>109.500000</ele>
 <time>2020-03-24T17:05:31Z</time>
</trkpt>
<trkpt lat="34.957435" lon="135.657537">
 <ele>107.400000</ele>
 <time>2020-03-24T17:05:31Z</time>
</trkpt>
<trkpt lat="34.957238" lon="135.657934">
 <ele>104.800000</ele>
 <time>2020-03-24T17:05:31Z</time>
</trkpt>
<trkpt lat="34.957143" lon="135.658074">
 <ele>103.800000</ele>
 <time>2020-03-24T17:05:31Z</time>
</trkpt>
<trkpt lat="34.956963" lon="135.658267">
 <ele>102.300000</ele>
 <time>2020-03-24T17:05:32Z</time>
</trkpt>
<trkpt lat="34.956809" lon="135.658482">
 <ele>101.700000</ele>
 <time>2020-03-24T17:05:32Z</time>
</trkpt>
<trkpt lat="34.956663" lon="135.658675">
 <ele>100.700000</ele>
 <time>2020-03-24T17:05:32Z</time>
</trkpt>
<trkpt lat="34.956620" lon="135.658825">
 <ele>100.100000</ele>
 <time>2020-03-24T17:05:32Z</time>
</trkpt>
<trkpt lat="34.956706" lon="135.658954">
 <ele>100.500000</ele>
 <time>2020-03-24T17:05:32Z</time>
</trkpt>
<trkpt lat="34.956912" lon="135.659265">
 <ele>102.100000</ele>
 <time>2020-03-24T17:05:32Z</time>
</trkpt>
<trkpt lat="34.957049" lon="135.659501">
 <ele>102.100000</ele>
 <time>2020-03-24T17:05:32Z</time>
</trkpt>
<trkpt lat="34.957212" lon="135.659866">
 <ele>101.000000</ele>
 <time>2020-03-24T17:05:33Z</time>
</trkpt>
<trkpt lat="34.957315" lon="135.660198">
 <ele>99.400000</ele>
 <time>2020-03-24T17:05:33Z</time>
</trkpt>
<trkpt lat="34.957358" lon="135.660359">
 <ele>97.800000</ele>
 <time>2020-03-24T17:05:33Z</time>
</trkpt>
<trkpt lat="34.957401" lon="135.660381">
 <ele>98.500000</ele>
 <time>2020-03-24T17:05:33Z</time>
</trkpt>
<trkpt lat="34.957444" lon="135.660445">
 <ele>96.700000</ele>
 <time>2020-03-24T17:05:33Z</time>
</trkpt>
<trkpt lat="34.957452" lon="135.660627">
 <ele>95.400000</ele>
 <time>2020-03-24T17:05:33Z</time>
</trkpt>
<trkpt lat="34.957478" lon="135.660874">
 <ele>94.800000</ele>
 <time>2020-03-24T17:05:33Z</time>
</trkpt>
<trkpt lat="34.957427" lon="135.661046">
 <ele>94.400000</ele>
 <time>2020-03-24T17:05:34Z</time>
</trkpt>
</trkseg>
</trk>
<trk>
 <name>ショートカット登山道</name>
 <number>2</number>
 <extensions>
 <kashmir3d:line_color>ff8000</kashmir3d:line_color>
 <kashmir3d:line_size>3</kashmir3d:line_size>
 <kashmir3d:line_style>1</kashmir3d:line_style>
 <kashmir3d:icon>901001</kashmir3d:icon>
 </extensions>
<trkseg>
<trkpt lat="34.959015" lon="135.647227">
 <ele>293.300000</ele>
 <time>2023-05-06T06:40:19Z</time>
</trkpt>
<trkpt lat="34.959187" lon="135.646938">
 <ele>-0.001000</ele>
 <time>2023-05-06T06:40:29Z</time>
</trkpt>
<trkpt lat="34.959341" lon="135.646820">
 <ele>-0.001000</ele>
 <time>2023-05-06T06:40:39Z</time>
</trkpt>
<trkpt lat="34.959470" lon="135.646734">
 <ele>-0.001000</ele>
 <time>2023-05-06T06:40:49Z</time>
</trkpt>
<trkpt lat="34.959573" lon="135.646734">
 <ele>-0.001000</ele>
 <time>2023-05-06T06:40:59Z</time>
</trkpt>
<trkpt lat="34.959667" lon="135.646551">
 <ele>-0.001000</ele>
 <time>2023-05-06T06:41:09Z</time>
</trkpt>
<trkpt lat="34.959719" lon="135.646390">
 <ele>-0.001000</ele>
 <time>2023-05-06T06:41:19Z</time>
</trkpt>
<trkpt lat="34.959787" lon="135.646240">
 <ele>-0.001000</ele>
 <time>2023-05-06T06:41:29Z</time>
</trkpt>
<trkpt lat="34.959873" lon="135.646069">
 <ele>-0.001000</ele>
 <time>2023-05-06T06:41:39Z</time>
</trkpt>
<trkpt lat="34.959950" lon="135.645811">
 <ele>-1.000000</ele>
 <time>2023-05-06T06:41:49Z</time>
</trkpt>
</trkseg>
</trk>
</gpx>
